Change the Weather History Date:

Tuesday, October 4, 2011

  Actual Average Record
Temperature  
Mean Temperature 30 °F -  
Max Temperature 39 °F 33 °F 51 °F (2003)
Min Temperature 21 °F 21 °F 6 °F (2000)
Degree Days  
Heating Degree Days 35    
Moisture  
Dew Point 25 °F    
Average Humidity 78    
Maximum Humidity 93    
Minimum Humidity 61    
Precipitation  
Precipitation 0.00 in - - ()
Sea Level Pressure  
Sea Level Pressure 29.54 in    
Wind  
Wind Speed 0 mph (NW)    
Max Wind Speed 4 mph    
Max Gust Speed -    
Visibility 10 miles    
Events      
Averages and records for this station are not official NWS values.
T = Trace of Precipitation, MM = Missing Value Source: NWS Daily Summary

Daily Weather History Graph

Daily Weather History Graph

Search for Another Location

Airport or City:

Trip Planner

Search our weather history database for the weather conditions in past years. The results will help you decide how hot, cold, wet, or windy it might be!

Date:

Astronomy

Oct. 04, 2011 Rise Set
Actual Time 8:02 AM AKDT 6:55 PM AKDT
Civil Twilight 7:09 AM AKDT 7:47 PM AKDT
Nautical Twilight 6:08 AM AKDT 8:48 PM AKDT
Astronomical Twilight 5:01 AM AKDT 9:55 PM AKDT
Moon 5:50 PM AKDT (10/4) 11:20 PM AKDT (10/4)
Length of Visible Light 12h 37m
Length of Day
10h 53m
First Quarter, 57% of the Moon is Illuminated
Oct 4
First Quarter
Oct 11
Full
Oct 19
Last Quarter
Oct 26
New
Nov 2
First Quarter

Hourly Weather History & Observations

Time (AKDT) Temp. Windchill Dew Point Humidity Pressure Visibility Wind Dir Wind Speed Gust Speed Precip Events Conditions
12:16 AM 30.2 °F - 26.6 °F 86% 29.49 in 10.0 mi Calm Calm - N/A   Clear
12:36 AM 28.4 °F - 24.8 °F 86% 29.49 in 10.0 mi Calm Calm - N/A   Partly Cloudy
12:56 AM 30.2 °F - 26.6 °F 86% 29.49 in 10.0 mi Calm Calm - N/A   Mostly Cloudy
1:16 AM 30.2 °F - 26.6 °F 86% 29.49 in 10.0 mi Calm Calm - N/A   Overcast
1:36 AM 28.4 °F - 24.8 °F 86% 29.50 in 8.0 mi Calm Calm - N/A   Scattered Clouds
1:56 AM 28.4 °F - 24.8 °F 86% 29.51 in 10.0 mi Calm Calm - N/A   Clear
2:16 AM 28.4 °F - 24.8 °F 86% 29.51 in 10.0 mi Calm Calm - N/A   Clear
2:36 AM 28.4 °F - 24.8 °F 86% 29.51 in 10.0 mi Calm Calm - N/A   Clear
2:56 AM 26.6 °F - 24.8 °F 93% 29.51 in 10.0 mi Calm Calm - N/A   Partly Cloudy
3:16 AM 26.6 °F - 21.2 °F 80% 29.51 in 10.0 mi Calm Calm - N/A   Partly Cloudy
3:36 AM 26.6 °F - 24.8 °F 93% 29.52 in 10.0 mi Calm Calm - N/A   Mostly Cloudy
3:56 AM 26.6 °F - 23.0 °F 86% 29.52 in 10.0 mi Calm Calm - N/A   Overcast
4:16 AM 26.6 °F - 23.0 °F 86% 29.52 in 10.0 mi Calm Calm - N/A   Overcast
4:36 AM 26.6 °F - 21.2 °F 80% 29.52 in 9.0 mi Calm Calm - N/A   Mostly Cloudy
4:56 AM 26.6 °F - 23.0 °F 86% 29.52 in 6.0 mi Calm Calm - N/A   Overcast
5:16 AM 26.6 °F - 23.0 °F 86% 29.53 in 3.0 mi Calm Calm - N/A   Overcast
5:36 AM 26.6 °F - 21.2 °F 80% 29.53 in 8.0 mi Calm Calm - N/A   Overcast
5:56 AM 26.6 °F - 21.2 °F 80% 29.53 in 8.0 mi Calm Calm - N/A   Mostly Cloudy
6:16 AM 24.8 °F - 21.2 °F 86% 29.53 in 8.0 mi Calm Calm - N/A   Clear
6:36 AM 26.6 °F - 23.0 °F 86% 29.53 in 9.0 mi Calm Calm - N/A   Clear
6:56 AM 26.6 °F - 21.2 °F 80% 29.53 in 10.0 mi Calm Calm - N/A   Clear
7:16 AM 24.8 °F - 21.2 °F 86% 29.53 in 10.0 mi Calm Calm - N/A   Clear
7:36 AM 23.0 °F - 19.4 °F 86% 29.54 in 10.0 mi Calm Calm - N/A   Clear
7:56 AM 21.2 °F - 17.6 °F 86% 29.54 in 10.0 mi Calm Calm - N/A   Clear
8:16 AM 24.8 °F - 19.4 °F 80% 29.54 in 10.0 mi Calm Calm - N/A   Clear
8:36 AM 23.0 °F - 19.4 °F 86% 29.54 in 10.0 mi Calm Calm - N/A   Partly Cloudy
8:56 AM 23.0 °F - 19.4 °F 86% 29.55 in 8.0 mi Calm Calm - N/A   Partly Cloudy
9:16 AM 24.8 °F - 19.4 °F 80% 29.55 in 10.0 mi Calm Calm - N/A   Clear
9:36 AM 26.6 °F - 23.0 °F 86% 29.55 in 10.0 mi Calm Calm - N/A   Clear
9:56 AM 28.4 °F - 24.8 °F 86% 29.55 in 10.0 mi Calm Calm - N/A   Clear
10:16 AM 28.4 °F 24.6 °F 24.8 °F 86% 29.56 in 10.0 mi NW 3.5 mph - N/A   Clear
10:36 AM 30.2 °F 26.7 °F 24.8 °F 80% 29.56 in 10.0 mi NW 3.5 mph - N/A   Clear
10:56 AM 30.2 °F 26.7 °F 26.6 °F 86% 29.56 in 10.0 mi NW 3.5 mph - N/A   Clear
11:16 AM 30.2 °F - 24.8 °F 80% 29.56 in 10.0 mi Calm Calm - N/A   Clear
11:36 AM 32.0 °F - 24.8 °F 75% 29.56 in 10.0 mi Calm Calm - N/A   Clear
11:56 AM 33.8 °F - 26.6 °F 75% 29.56 in 10.0 mi Calm Calm - N/A   Clear
12:16 PM 33.8 °F - 26.6 °F 75% 29.56 in 10.0 mi Calm Calm - N/A   Clear
12:36 PM 33.8 °F - 26.6 °F 75% 29.56 in 10.0 mi Calm Calm - N/A   Clear
12:56 PM 35.6 °F - 28.4 °F 75% 29.56 in 3.0 mi Calm Calm - N/A   Clear
1:16 PM 35.6 °F - 28.4 °F 75% 29.57 in 10.0 mi Calm Calm - N/A   Clear
1:36 PM 37.4 °F 34.9 °F 28.4 °F 70% 29.57 in 10.0 mi WNW 3.5 mph - N/A   Clear
1:56 PM 37.4 °F - 28.4 °F 70% 29.57 in 10.0 mi Calm Calm - N/A   Clear
2:16 PM 37.4 °F - 28.4 °F 70% 29.57 in 10.0 mi Calm Calm - N/A   Clear
2:36 PM 37.4 °F - 28.4 °F 70% 29.57 in 10.0 mi Calm Calm - N/A   Clear
2:56 PM 39.2 °F - 28.4 °F 65% 29.57 in 10.0 mi Calm Calm - N/A   Clear
3:16 PM 39.2 °F - 28.4 °F 65% 29.57 in 10.0 mi Calm Calm - N/A   Clear
3:36 PM 39.2 °F - 28.4 °F 65% 29.57 in 10.0 mi Calm Calm - N/A   Clear
3:56 PM 39.2 °F - 28.4 °F 65% 29.57 in 10.0 mi Calm Calm - N/A   Clear
4:16 PM 39.2 °F - 26.6 °F 61% 29.56 in 10.0 mi Calm Calm - N/A   Clear
4:36 PM 39.2 °F - 26.6 °F 61% 29.57 in 10.0 mi Calm Calm - N/A   Partly Cloudy
4:56 PM 39.2 °F - 26.6 °F 61% 29.57 in 10.0 mi Calm Calm - N/A   Scattered Clouds
5:16 PM 39.2 °F - 26.6 °F 61% 29.56 in 10.0 mi Calm Calm - N/A   Scattered Clouds
5:36 PM 39.2 °F - 26.6 °F 61% 29.56 in 10.0 mi Calm Calm - N/A   Scattered Clouds
5:56 PM 39.2 °F - 26.6 °F 61% 29.56 in 10.0 mi Calm Calm - N/A   Partly Cloudy
6:16 PM 39.2 °F - 26.6 °F 61% 29.56 in 10.0 mi Calm Calm - N/A   Partly Cloudy
6:36 PM 37.4 °F - 26.6 °F 65% 29.56 in 10.0 mi Calm Calm - N/A   Partly Cloudy
6:56 PM 37.4 °F - 26.6 °F 65% 29.56 in 10.0 mi Calm Calm - N/A   Clear
7:16 PM 33.8 °F - 26.6 °F 75% 29.56 in 10.0 mi Calm Calm - N/A   Clear
7:36 PM 32.0 °F - 26.6 °F 80% 29.56 in 10.0 mi Calm Calm - N/A   Clear
7:56 PM 30.2 °F - 26.6 °F 86% 29.56 in 10.0 mi Calm Calm - N/A   Partly Cloudy
8:16 PM 30.2 °F - 24.8 °F 80% 29.57 in 10.0 mi Calm Calm - N/A   Scattered Clouds
8:36 PM 30.2 °F - 24.8 °F 80% 29.57 in 10.0 mi Calm Calm - N/A   Overcast
8:56 PM 30.2 °F - 24.8 °F 80% 29.57 in 10.0 mi Calm Calm - N/A   Overcast
9:16 PM 30.2 °F - 24.8 °F 80% 29.57 in 8.0 mi Calm Calm - N/A   Overcast
9:36 PM 30.2 °F - 24.8 °F 80% 29.57 in 6.0 mi Calm Calm - N/A   Overcast
9:56 PM 30.2 °F - 24.8 °F 80% 29.57 in 9.0 mi Calm Calm - N/A   Overcast
10:16 PM 30.2 °F - 26.6 °F 86% 29.57 in 10.0 mi Calm Calm - N/A   Overcast
10:36 PM 32.0 °F - 26.6 °F 80% 29.57 in 10.0 mi Calm Calm - N/A   Overcast
10:56 PM 33.8 °F - 26.6 °F 75% 29.57 in 10.0 mi Calm Calm - N/A   Overcast
11:16 PM 33.8 °F - 26.6 °F 75% 29.57 in 10.0 mi Calm Calm - N/A   Overcast
11:36 PM 33.8 °F - 28.4 °F 81% 29.57 in 10.0 mi Calm Calm - N/A   Overcast
11:56 PM 33.8 °F - 28.4 °F 81% 29.57 in 10.0 mi Calm Calm - N/A   Overcast